TimeEDT,TemperatureF,Dew PointF,Humidity,Sea Level PressureIn,VisibilityMPH,Wind Direction,Wind SpeedMPH,Gust SpeedMPH,PrecipitationIn,Events,Conditions,WindDirDegrees,DateUTC
12:53 AM,73.9,72.0,93,30.09,6.0,Calm,Calm,-,N/A,,Mostly Cloudy,0,2013-07-18 04:53:00
1:53 AM,73.9,72.0,93,30.07,6.0,Calm,Calm,-,N/A,,Partly Cloudy,0,2013-07-18 05:53:00
2:53 AM,73.0,71.1,93,30.06,5.0,Calm,Calm,-,N/A,,Partly Cloudy,0,2013-07-18 06:53:00
3:53 AM,72.0,71.1,97,30.06,4.0,Calm,Calm,-,N/A,,Clear,0,2013-07-18 07:53:00
4:35 AM,71.6,69.8,94,30.06,2.5,Calm,Calm,-,N/A,,Clear,0,2013-07-18 08:35:00
4:53 AM,71.1,70.0,96,30.06,2.5,Calm,Calm,-,N/A,,Clear,0,2013-07-18 08:53:00
5:03 AM,71.6,69.8,94,30.07,4.0,Calm,Calm,-,N/A,,Clear,0,2013-07-18 09:03:00
5:48 AM,71.6,69.8,94,30.07,2.5,Calm,Calm,-,N/A,,Clear,0,2013-07-18 09:48:00
5:53 AM,71.1,70.0,96,30.06,2.5,Calm,Calm,-,N/A,,Clear,0,2013-07-18 09:53:00
6:15 AM,71.6,69.8,94,30.08,3.0,Calm,Calm,-,N/A,,Clear,0,2013-07-18 10:15:00
6:53 AM,73.0,71.1,93,30.07,4.0,Calm,Calm,-,N/A,,Clear,0,2013-07-18 10:53:00
7:53 AM,78.1,73.0,84,30.08,7.0,Calm,Calm,-,N/A,,Partly Cloudy,0,2013-07-18 11:53:00
8:53 AM,84.0,73.0,69,30.08,10.0,North,5.8,-,N/A,,Clear,360,2013-07-18 12:53:00
9:53 AM,86.0,73.0,65,30.07,10.0,North,8.1,-,N/A,,Clear,350,2013-07-18 13:53:00
10:53 AM,88.0,72.0,59,30.07,10.0,Variable,4.6,-,N/A,,Clear,0,2013-07-18 14:53:00
11:53 AM,90.0,70.0,52,30.07,10.0,Variable,4.6,-,N/A,,Clear,0,2013-07-18 15:53:00
12:53 PM,91.0,70.0,50,30.05,10.0,Variable,3.5,-,N/A,,Clear,0,2013-07-18 16:53:00
1:53 PM,91.9,69.1,47,30.04,10.0,Variable,5.8,-,N/A,,Clear,0,2013-07-18 17:53:00
2:53 PM,93.0,70.0,47,30.03,10.0,NW,4.6,-,N/A,,Partly Cloudy,310,2013-07-18 18:53:00
3:53 PM,93.9,70.0,46,30.01,10.0,Variable,4.6,-,N/A,,Clear,0,2013-07-18 19:53:00
4:53 PM,93.9,70.0,46,29.99,10.0,Variable,4.6,-,N/A,,Clear,0,2013-07-18 20:53:00
5:53 PM,93.0,70.0,47,29.99,10.0,Variable,3.5,-,N/A,,Clear,0,2013-07-18 21:53:00
6:53 PM,87.1,78.1,74,30.00,10.0,Calm,Calm,-,N/A,,Clear,0,2013-07-18 22:53:00
7:53 PM,82.9,77.0,82,30.01,10.0,Calm,Calm,-,N/A,,Clear,0,2013-07-18 23:53:00
8:53 PM,80.1,77.0,90,30.00,10.0,Calm,Calm,-,N/A,,Clear,0,2013-07-19 00:53:00
9:53 PM,78.1,75.9,93,30.01,9.0,Calm,Calm,-,N/A,,Partly Cloudy,0,2013-07-19 01:53:00
10:53 PM,78.1,75.0,90,29.97,8.0,Calm,Calm,-,N/A,,Clear,0,2013-07-19 02:53:00
11:53 PM,77.0,73.9,90,29.99,9.0,SSW,3.5,-,N/A,,Clear,200,2013-07-19 03:53:00